| time (UTC) | temp F | wind direction | speed MPH | gust MPH | rain 1hr in | rain 24hr in | rain mn in | humidity % | barometer mb |
| 20260505014304 | 45 | 300 | 3.0 | 6.0 | 0.00 | 0.52 | 0.41 | 95 | 1007.0 |
| 20260505003305 | 43 | 328 | 3.0 | 5.0 | 0.01 | 0.52 | 0.41 | 96 | 1008.2 |
| 20260505002804 | 43 | 313 | 2.0 | 3.0 | 0.01 | 0.52 | 0.41 | 96 | 1008.4 |
| 20260505002304 | 43 | 289 | 3.0 | 7.0 | 0.01 | 0.52 | 0.41 | 96 | 1008.6 |
| 20260505001804 | 43 | 355 | 4.0 | 6.0 | 0.01 | 0.52 | 0.41 | 96 | 1008.4 |
| 20260505001303 | 43 | 346 | 4.0 | 6.0 | 0.01 | 0.52 | 0.41 | 96 | 1008.6 |
| 20260505000804 | 43 | 3 | 5.0 | 7.0 | 0.01 | 0.52 | 0.41 | 96 | 1008.9 |
| 20260505000304 | 43 | 298 | 2.0 | 6.0 | 0.01 | 0.52 | 0.41 | 96 | 1009.3 |
| 20260504235804 | 43 | 336 | 4.0 | 8.0 | 0.00 | 0.51 | 0.40 | 96 | 1009.4 |
| 20260504235305 | 43 | 324 | 6.0 | 8.0 | 0.00 | 0.51 | 0.40 | 96 | 1009.4 |
| 20260504234804 | 43 | 310 | 5.0 | 7.0 | 0.00 | 0.51 | 0.40 | 96 | 1009.6 |
| 20260504234304 | 43 | 322 | 2.0 | 5.0 | 0.00 | 0.51 | 0.40 | 96 | 1009.8 |
| 20260504233804 | 43 | 351 | 3.0 | 6.0 | 0.00 | 0.51 | 0.40 | 96 | 1009.7 |
| 20260504233304 | 42 | 297 | 4.0 | 7.0 | 0.00 | 0.51 | 0.40 | 96 | 1009.9 |
| 20260504232804 | 42 | 328 | 3.0 | 7.0 | 0.00 | 0.51 | 0.40 | 96 | 1009.9 |
| 20260504232304 | 42 | 332 | 2.0 | 6.0 | 0.00 | 0.51 | 0.40 | 96 | 1009.9 |
| 20260504231804 | 43 | 283 | 2.0 | 5.0 | 0.00 | 0.51 | 0.40 | 96 | 1010.1 |
| 20260504231304 | 42 | 302 | 3.0 | 6.0 | 0.00 | 0.51 | 0.40 | 96 | 1010.1 |
| 20260504230804 | 42 | 322 | 1.0 | 5.0 | 0.00 | 0.51 | 0.40 | 96 | 1010.0 |
| 20260504230304 | 42 | 340 | 3.0 | 6.0 | 0.00 | 0.51 | 0.40 | 96 | 1010.0 |
| 20260504225804 | 42 | 334 | 4.0 | 8.0 | 0.00 | 0.51 | 0.40 | 96 | 1010.2 |
| 20260504225304 | 42 | 312 | 5.0 | 8.0 | 0.00 | 0.51 | 0.40 | 96 | 1010.3 |
| 20260504224804 | 42 | 339 | 3.0 | 6.0 | 0.00 | 0.51 | 0.40 | 96 | 1010.3 |
| 20260504224303 | 42 | 339 | 5.0 | 7.0 | 0.00 | 0.51 | 0.40 | 96 | 1010.3 |
| 20260504223803 | 42 | 314 | 2.0 | 5.0 | 0.00 | 0.51 | 0.40 | 96 | 1010.5 |
| 20260504223304 | 42 | 338 | 5.0 | 6.0 | 0.00 | 0.51 | 0.40 | 96 | 1010.4 |
| 20260504222305 | 42 | 343 | 4.0 | 7.0 | 0.00 | 0.51 | 0.40 | 96 | 1010.7 |
| 20260504221804 | 42 | 0 | 4.0 | 6.0 | 0.00 | 0.51 | 0.40 | 96 | 1010.8 |
| 20260504221304 | 42 | 336 | 2.0 | 5.0 | 0.00 | 0.51 | 0.40 | 96 | 1010.8 |
| 20260504220804 | 42 | 319 | 3.0 | 6.0 | 0.00 | 0.51 | 0.40 | 96 | 1011.2 |
| 20260504220304 | 42 | 319 | 3.0 | 7.0 | 0.00 | 0.51 | 0.40 | 96 | 1011.2 |
| 20260504215805 | 43 | 290 | 1.0 | 5.0 | 0.00 | 0.51 | 0.40 | 96 | 1011.4 |
| 20260504215305 | 43 | 311 | 2.0 | 5.0 | 0.00 | 0.51 | 0.40 | 96 | 1011.4 |
| 20260504214804 | 43 | 288 | 1.0 | 5.0 | 0.00 | 0.51 | 0.40 | 96 | 1011.3 |
| 20260504214304 | 43 | 321 | 2.0 | 5.0 | 0.00 | 0.51 | 0.40 | 96 | 1011.0 |
| 20260504213804 | 43 | 297 | 1.0 | 6.0 | 0.00 | 0.51 | 0.40 | 96 | 1011.2 |
| 20260504213304 | 43 | 323 | 3.0 | 5.0 | 0.00 | 0.51 | 0.40 | 96 | 1011.2 |
| 20260504212804 | 43 | 317 | 2.0 | 6.0 | 0.00 | 0.51 | 0.40 | 96 | 1011.2 |
| 20260504212304 | 43 | 6 | 3.0 | 6.0 | 0.00 | 0.51 | 0.40 | 96 | 1011.2 |
| 20260504211804 | 43 | 2 | 3.0 | 5.0 | 0.00 | 0.51 | 0.40 | 96 | 1011.3 |
| 20260504211304 | 42 | 342 | 3.0 | 6.0 | 0.00 | 0.51 | 0.40 | 96 | 1011.4 |
| 20260504210804 | 42 | 343 | 2.0 | 5.0 | 0.00 | 0.51 | 0.40 | 96 | 1011.4 |
| 20260504210304 | 42 | 54 | 1.0 | 5.0 | 0.00 | 0.51 | 0.40 | 96 | 1011.7 |
| 20260504205804 | 42 | 13 | 2.0 | 5.0 | 0.00 | 0.51 | 0.40 | 96 | 1011.7 |
| 20260504205305 | 42 | 319 | 3.0 | 5.0 | 0.00 | 0.51 | 0.40 | 96 | 1011.9 |
| 20260504204805 | 42 | 52 | 2.0 | 5.0 | 0.00 | 0.51 | 0.40 | 96 | 1012.0 |
| 20260504204304 | 42 | 14 | 2.0 | 5.0 | 0.00 | 0.51 | 0.40 | 96 | 1012.0 |
| 20260504203804 | 42 | 357 | 3.0 | 5.0 | 0.00 | 0.51 | 0.40 | 96 | 1012.3 |
| 20260504203304 | 42 | 339 | 2.0 | 5.0 | 0.00 | 0.51 | 0.40 | 96 | 1012.2 |
| 20260504202805 | 42 | 4 | 3.0 | 5.0 | 0.00 | 0.51 | 0.40 | 96 | 1012.3 |
| 20260504202305 | 42 | 42 | 3.0 | 6.0 | 0.00 | 0.51 | 0.40 | 96 | 1012.5 |
| 20260504201805 | 42 | 54 | 0.0 | 3.0 | 0.00 | 0.51 | 0.40 | 96 | 1012.7 |
| 20260504201304 | 42 | 11 | 2.0 | 5.0 | 0.00 | 0.51 | 0.40 | 96 | 1012.8 |
| 20260504200804 | 42 | 32 | 2.0 | 5.0 | 0.00 | 0.51 | 0.40 | 96 | 1012.9 |
| 20260504200304 | 42 | 45 | 1.0 | 2.0 | 0.00 | 0.51 | 0.40 | 96 | 1013.1 |
| 20260504195804 | 42 | 289 | 3.0 | 5.0 | 0.00 | 0.51 | 0.40 | 96 | 1013.2 |
| 20260504195304 | 42 | 52 | 0.0 | 2.0 | 0.00 | 0.51 | 0.40 | 96 | 1013.3 |
| 20260504194804 | 42 | 24 | 3.0 | 6.0 | 0.00 | 0.51 | 0.40 | 96 | 1013.3 |
| 20260504194303 | 42 | 338 | 2.0 | 5.0 | 0.00 | 0.51 | 0.40 | 96 | 1013.4 |
| 20260504193804 | 42 | 338 | 3.0 | 6.0 | 0.00 | 0.51 | 0.40 | 96 | 1013.7 |
| 20260504193304 | 42 | 358 | 5.0 | 6.0 | 0.00 | 0.51 | 0.40 | 96 | 1013.6 |
| 20260504192804 | 41 | 23 | 2.0 | 7.0 | 0.00 | 0.51 | 0.40 | 96 | 1013.7 |
| 20260504192304 | 41 | 322 | 5.0 | 7.0 | 0.00 | 0.51 | 0.40 | 96 | 1013.7 |
| 20260504191804 | 42 | 348 | 5.0 | 7.0 | 0.00 | 0.51 | 0.40 | 96 | 1013.7 |
| 20260504191304 | 41 | 271 | 2.0 | 3.0 | 0.00 | 0.51 | 0.40 | 96 | 1013.7 |
| 20260504190804 | 41 | 242 | 0.0 | 3.0 | 0.00 | 0.51 | 0.40 | 96 | 1013.7 |
| 20260504190304 | 41 | 203 | 0.0 | 3.0 | 0.00 | 0.51 | 0.40 | 96 | 1013.7 |
| 20260504185804 | 41 | 356 | 2.0 | 6.0 | 0.01 | 0.51 | 0.40 | 96 | 1013.5 |
| 20260504185305 | 41 | 247 | 1.0 | 5.0 | 0.02 | 0.51 | 0.40 | 96 | 1013.6 |
| 20260504184804 | 41 | 330 | 2.0 | 6.0 | 0.02 | 0.51 | 0.40 | 96 | 1013.5 |
| 20260504184304 | 41 | 270 | 1.0 | 6.0 | 0.02 | 0.51 | 0.40 | 96 | 1013.5 |
| 20260504183804 | 41 | 296 | 0.0 | 0.0 | 0.02 | 0.51 | 0.40 | 96 | 1013.7 |
| 20260504183304 | 41 | 296 | 1.0 | 6.0 | 0.03 | 0.51 | 0.40 | 96 | 1013.7 |
| 20260504182805 | 41 | 38 | 0.0 | 5.0 | 0.03 | 0.51 | 0.40 | 96 | 1013.9 |
| 20260504182304 | 41 | 287 | 1.0 | 3.0 | 0.04 | 0.51 | 0.40 | 96 | 1013.9 |
| 20260504181804 | 41 | 32 | 1.0 | 3.0 | 0.04 | 0.51 | 0.40 | 96 | 1014.0 |
| 20260504181304 | 41 | 312 | 0.0 | 2.0 | 0.05 | 0.51 | 0.40 | 96 | 1014.0 |
| 20260504180804 | 41 | 312 | 0.0 | 0.0 | 0.05 | 0.51 | 0.40 | 96 | 1014.1 |
| 20260504180304 | 41 | 296 | 0.0 | 1.0 | 0.06 | 0.51 | 0.40 | 96 | 1014.2 |
| 20260504175804 | 41 | 284 | 0.0 | 3.0 | 0.05 | 0.50 | 0.39 | 96 | 1014.3 |
| 20260504175304 | 41 | 223 | 0.0 | 0.0 | 0.04 | 0.49 | 0.38 | 96 | 1014.3 |
| 20260504174804 | 41 | 223 | 0.0 | 0.0 | 0.04 | 0.49 | 0.38 | 96 | 1014.3 |
| 20260504174305 | 41 | 223 | 0.0 | 0.0 | 0.05 | 0.49 | 0.38 | 96 | 1014.2 |
| 20260504173805 | 41 | 223 | 0.0 | 0.0 | 0.05 | 0.49 | 0.38 | 96 | 1014.4 |
| 20260504173304 | 41 | 223 | 0.0 | 2.0 | 0.05 | 0.48 | 0.37 | 96 | 1014.4 |
| 20260504172805 | 41 | 200 | 0.0 | 1.0 | 0.05 | 0.48 | 0.37 | 96 | 1014.5 |
| 20260504172304 | 41 | 200 | 0.0 | 0.0 | 0.04 | 0.47 | 0.36 | 96 | 1014.7 |
| 20260504171804 | 41 | 200 | 0.0 | 0.0 | 0.05 | 0.47 | 0.36 | 96 | 1014.6 |
| 20260504171304 | 41 | 200 | 0.0 | 1.0 | 0.04 | 0.46 | 0.35 | 96 | 1014.7 |
| 20260504170804 | 41 | 288 | 0.0 | 1.0 | 0.05 | 0.46 | 0.35 | 96 | 1014.6 |
| 20260504170304 | 41 | 281 | 0.0 | 1.0 | 0.04 | 0.45 | 0.34 | 96 | 1014.6 |
| 20260504160304 | 40 | 13 | 0.0 | 0.0 | 0.03 | 0.41 | 0.30 | 96 | 1015.2 |
| 20260504150805 | 40 | 336 | 0.0 | 0.0 | 0.04 | 0.39 | 0.28 | 96 | 1015.7 |
| 20260504150304 | 40 | 336 | 0.0 | 0.0 | 0.03 | 0.38 | 0.27 | 96 | 1015.7 |
| 20260504141304 | 40 | 336 | 0.0 | 0.0 | 0.05 | 0.36 | 0.25 | 95 | 1016.0 |
| 20260504140804 | 40 | 336 | 0.0 | 0.0 | 0.04 | 0.35 | 0.24 | 95 | 1016.0 |
| 20260504140304 | 40 | 336 | 0.0 | 0.0 | 0.04 | 0.35 | 0.24 | 95 | 1016.0 |
| 20260504130804 | 40 | 3 | 0.0 | 0.0 | 0.06 | 0.31 | 0.20 | 95 | 1016.3 |
| 20260504130304 | 40 | 3 | 0.0 | 0.0 | 0.07 | 0.31 | 0.20 | 95 | 1016.4 |
| 20260504120304 | 40 | 292 | 0.0 | 0.0 | 0.04 | 0.24 | 0.13 | 95 | 1016.7 |
| 20260504110304 | 40 | 292 | 0.0 | 0.0 | 0.05 | 0.20 | 0.09 | 95 | 1017.1 |
| 20260504100304 | 41 | 261 | 0.0 | 0.0 | 0.02 | 0.15 | 0.04 | 94 | 1017.2 |
| 20260504081804 | 41 | 315 | 0.0 | 0.0 | 0.03 | 0.12 | 0.01 | 92 | 1017.6 |
| 20260504081304 | 41 | 321 | 0.0 | 1.0 | 0.03 | 0.12 | 0.01 | 92 | 1017.6 |
| 20260504080804 | 41 | 311 | 1.0 | 3.0 | 0.03 | 0.12 | 0.01 | 92 | 1017.6 |
| 20260504080305 | 41 | 328 | 1.0 | 3.0 | 0.02 | 0.11 | 0.00 | 92 | 1017.6 |
| 20260504070304 | 41 | 307 | 1.0 | 2.0 | 0.04 | 0.09 | 0.09 | 91 | 1017.4 |
| 20260504050304 | 43 | 329 | 1.0 | 1.0 | 0.01 | 0.03 | 0.03 | 83 | 1017.5 |
| 20260504045805 | 43 | 318 | 0.0 | 0.0 | 0.01 | 0.03 | 0.03 | 82 | 1017.5 |
| 20260504045305 | 43 | 318 | 0.0 | 1.0 | 0.01 | 0.03 | 0.03 | 82 | 1017.5 |
| 20260504044804 | 43 | 353 | 1.0 | 2.0 | 0.01 | 0.03 | 0.03 | 82 | 1017.5 |
| 20260504044304 | 43 | 44 | 0.0 | 6.0 | 0.02 | 0.03 | 0.03 | 82 | 1017.6 |
| 20260504043804 | 43 | 336 | 3.0 | 5.0 | 0.02 | 0.03 | 0.03 | 82 | 1017.6 |
| 20260504043305 | 43 | 312 | 2.0 | 6.0 | 0.02 | 0.03 | 0.03 | 82 | 1017.6 |
| 20260504042805 | 43 | 335 | 2.0 | 5.0 | 0.02 | 0.03 | 0.03 | 82 | 1017.6 |
| 20260504042304 | 43 | 315 | 1.0 | 5.0 | 0.02 | 0.03 | 0.03 | 82 | 1017.6 |
| 20260504041805 | 43 | 345 | 3.0 | 6.0 | 0.01 | 0.02 | 0.02 | 82 | 1017.6 |
| 20260504030804 | 44 | 11 | 4.0 | 8.0 | 0.01 | 0.01 | 0.01 | 80 | 1018.0 |
| 20260504030304 | 44 | 29 | 5.0 | 8.0 | 0.01 | 0.01 | 0.01 | 80 | 1018.0 |
| 20260504025804 | 44 | 6 | 5.0 | 8.0 | 0.01 | 0.01 | 0.01 | 80 | 1018.0 |
| 20260504025304 | 44 | 25 | 4.0 | 6.0 | 0.01 | 0.01 | 0.01 | 79 | 1018.1 |
| 20260504024804 | 45 | 4 | 3.0 | 6.0 | 0.01 | 0.01 | 0.01 | 78 | 1018.1 |
| 20260504024304 | 45 | 27 | 2.0 | 5.0 | 0.01 | 0.01 | 0.01 | 78 | 1018.1 |
| 20260504023804 | 45 | 10 | 3.0 | 5.0 | 0.01 | 0.01 | 0.01 | 78 | 1018.1 |
| 20260504023304 | 45 | 21 | 3.0 | 6.0 | 0.01 | 0.01 | 0.01 | 77 | 1018.1 |
| 20260504022804 | 45 | 48 | 4.0 | 8.0 | 0.00 | 0.00 | 0.00 | 77 | 1018.2 |
| 20260504022304 | 45 | 18 | 3.0 | 6.0 | 0.00 | 0.00 | 0.00 | 76 | 1018.2 |
| 20260504021804 | 45 | 35 | 3.0 | 6.0 | 0.00 | 0.00 | 0.00 | 76 | 1018.2 |
| 20260504021304 | 45 | 20 | 4.0 | 7.0 | 0.00 | 0.00 | 0.00 | 75 | 1018.2 |
| 20260504020804 | 46 | 48 | 3.0 | 8.0 | 0.00 | 0.00 | 0.00 | 75 | 1018.2 |
| 20260504020304 | 46 | 33 | 4.0 | 7.0 | 0.00 | 0.00 | 0.00 | 75 | 1018.3 |
| 20260504015804 | 46 | 28 | 4.0 | 7.0 | 0.00 | 0.00 | 0.00 | 74 | 1018.3 |
| 20260504015304 | 46 | 26 | 3.0 | 7.0 | 0.00 | 0.00 | 0.00 | 73 | 1018.3 |
| 20260504014804 | 46 | 41 | 3.0 | 6.0 | 0.00 | 0.00 | 0.00 | 72 | 1018.3 |